[[{"header":{"parameterUnit":"m.s-1","parameterCategory":1,"la1":30.2991,"la2":30.254,"lo1":-89.0895,"lo2":-89.0444,"dy":0.0017,"dx":0.0017,"nx":28,"ny":28,"refTime":"2023-11-08T03:00:00:Z","depth":0,"parameterNumber":2,"parameterNumberName":"U-component_of_WINDS"},"data":[0,0,0,0,0,0,0,0,0,0,0,0,0,0,0,0,0,0,0,0,0,0,0,0,0,0,0,0,0,0,0,0,0,0,0,0,0,0,0,0,0,0,0,0,0,0,0,0,0,0,0,0,0,0,0,0,0,0,-0.5694,-0.5693,0,-0.564,-0.564,-0.5639,-0.5609,-0.5608,-0.5608,-0.5608,-0.5553,-0.5552,-0.5551,0,0,0,0,0,0,0,0,0,0,0,0,0,-0.5767,-0.5766,-0.5694,-0.5693,-0.5692,-0.5641,-0.564,-0.5639,-0.5609,-0.5608,-0.5608,-0.5608,-0.5554,-0.5552,-0.5551,0,0,0,0,0,0,0,0,0,0,0,0,0,-0.5727,-0.5766,-0.5694,-0.5671,-0.5668,-0.5641,-0.564,-0.5639,-0.5609,-0.5608,-0.5608,-0.5608,-0.5554,-0.5552,-0.555,-0.5541,0,0,-0.5544,-0.5543,0,0,0,0,0,0,0,0,-0.5729,-0.5724,-0.5675,-0.5672,-0.567,-0.5631,-0.5646,-0.5606,-0.5609,-0.5631,-0.5608,-0.5608,-0.5579,-0.5575,-0.5566,-0.5539,-0.5536,-0.5544,-0.5543,-0.5542,-0.5541,0,0,0,0,0,0,0,-0.5732,-0.5726,-0.5673,-0.5674,-0.5671,-0.5663,-0.5657,-0.5638,-0.5607,-0.5629,-0.5627,-0.5621,-0.5578,-0.5568,-0.5564,-0.5535,-0.5544,-0.5542,-0.5541,-0.554,-0.5496,-0.5496,0,0,0,0,0,0,-0.5739,-0.5729,-0.5674,-0.5671,-0.57,-0.5662,-0.5655,-0.5644,-0.5607,-0.5601,-0.5621,-0.562,-0.5571,-0.5566,-0.5562,-0.5547,-0.5542,-0.554,-0.5539,-0.5496,-0.5496,-0.5496,0,0,0,0,0,0,-0.574,-0.5734,-0.5676,-0.5699,-0.5691,-0.566,-0.5648,-0.5643,-0.5632,-0.5601,-0.5595,-0.5617,-0.5571,-0.5565,-0.5546,-0.5545,-0.5539,-0.5537,-0.5496,-0.5496,-0.5496,-0.5519,0,0,0,0,0,0,-0.5743,-0.5735,-0.5732,-0.5699,-0.569,-0.5662,-0.5648,-0.5642,-0.5629,-0.5627,-0.5595,-0.559,-0.557,-0.5549,-0.5544,-0.5542,-0.5536,-0.5496,-0.5496,-0.5496,-0.5518,-0.552,-0.5521,0,0,0,0,0,-0.5745,-0.5741,-0.5732,-0.5725,-0.5686,-0.5662,-0.5657,-0.5635,-0.5629,-0.5625,-0.5604,-0.5591,-0.5546,-0.5548,-0.5541,-0.5539,-0.5495,-0.5496,-0.5496,-0.5517,-0.5519,-0.5521,0,0,0,0,0,0,-0.5774,-0.5736,-0.5726,-0.5711,-0.569,-0.5657,-0.5651,-0.5638,-0.5618,-0.5617,-0.559,-0.5583,-0.5566,-0.5551,-0.5553,-0.5527,-0.5519,-0.5518,-0.5538,-0.5539,-0.5541,-0.5545,-0.5534,0,0,0,0,0,-0.5779,-0.5763,-0.5731,-0.5721,-0.571,-0.5683,-0.5672,-0.5656,-0.5634,-0.5625,-0.5603,-0.5581,-0.5562,-0.555,-0.553,-0.5515,-0.5507,-0.551,-0.5512,-0.5513,-0.5513,-0.5502,-0.5502,-0.5496,-0.5496,-0.5496,0,0,-0.5788,-0.5765,-0.5757,-0.5726,-0.5708,-0.5691,-0.5676,-0.566,-0.5647,-0.5622,-0.5603,-0.5586,-0.5559,-0.5542,-0.5533,-0.5528,-0.5512,-0.5513,-0.5515,-0.5513,-0.5502,-0.5502,-0.5503,-0.5496,-0.5496,-0.5496,0,0,-0.5797,-0.5779,-0.5767,-0.5749,-0.5722,-0.5703,-0.57,-0.5669,-0.5656,-0.5636,-0.5617,-0.5601,-0.5569,-0.555,-0.5537,-0.5536,-0.5522,-0.553,-0.5538,-0.5528,-0.5528,-0.5529,-0.5527,-0.5527,-0.553,-0.553,-0.553,0,-0.5812,-0.5787,-0.5763,-0.5747,-0.5733,-0.5709,-0.5697,-0.568,-0.5648,-0.5639,-0.5634,-0.5592,-0.5572,-0.5549,-0.5549,-0.5539,-0.5534,-0.5534,-0.553,-0.553,-0.553,-0.5528,-0.5528,-0.5531,-0.5531,-0.5531,-0.5531,0,-0.5806,-0.5789,-0.5783,-0.5751,-0.5737,-0.5723,-0.5696,-0.5684,-0.5669,-0.565,-0.5629,-0.5605,-0.5579,-0.5573,-0.5559,-0.5547,-0.5545,-0.5536,-0.5527,-0.5532,-0.553,-0.5529,-0.5533,-0.5532,-0.5532,-0.5532,0,0,-0.5832,-0.5787,-0.5785,-0.5769,-0.5736,-0.5722,-0.5707,-0.5681,-0.5671,-0.5649,-0.5634,-0.5606,-0.5597,-0.5581,-0.5565,-0.5556,-0.5554,-0.5547,-0.5546,-0.5548,-0.5538,-0.5545,-0.5545,-0.5545,-0.5545,-0.5545,-0.554,0,-0.5835,-0.5806,-0.5783,-0.5762,-0.5745,-0.5721,-0.5707,-0.5685,-0.5667,-0.5649,-0.5628,-0.5609,-0.5599,-0.5589,-0.5579,-0.5557,-0.5552,-0.5557,-0.553,-0.5529,-0.5537,-0.5544,-0.5551,-0.5548,-0.5539,-0.5539,-0.5539,0,-0.5835,-0.5813,-0.579,-0.5757,-0.5749,-0.5737,-0.5711,-0.5695,-0.5668,-0.5656,-0.5637,-0.562,-0.5601,-0.5594,-0.5567,-0.5571,-0.5558,-0.5545,-0.5545,-0.5541,-0.5534,-0.5539,-0.5547,-0.5546,-0.5537,-0.5538,-0.5538,0,-0.5855,-0.582,-0.5801,-0.5789,-0.575,-0.5742,-0.5725,-0.5699,-0.5684,-0.5661,-0.5652,-0.5627,-0.5613,-0.5594,-0.5569,-0.5567,-0.5544,-0.5536,-0.5532,-0.5532,-0.5528,-0.5529,-0.5533,-0.5521,-0.5521,-0.5521,-0.5521,0,-0.586,-0.5847,-0.5809,-0.5797,-0.5781,-0.5754,-0.5739,-0.572,-0.5697,-0.568,-0.5658,-0.5643,-0.5612,-0.5593,-0.5574,-0.5553,-0.5547,-0.5536,-0.5531,-0.5537,-0.5539,-0.5529,-0.5528,-0.5521,-0.5521,-0.5521,-0.5521,0,-0.5879,-0.5854,-0.5831,-0.5796,-0.5787,-0.5776,-0.5746,-0.5733,-0.5713,-0.5693,-0.5686,-0.5655,-0.5631,-0.5605,-0.5572,-0.5559,-0.5539,-0.5533,-0.5548,-0.5545,-0.5542,-0.5543,-0.554,-0.5537,-0.5528,-0.5529,-0.5529,0,-0.5884,-0.5873,-0.5836,-0.5823,-0.5807,-0.5788,-0.5772,-0.5745,-0.573,-0.5698,-0.5689,-0.5663,-0.5641,-0.5604,-0.5578,-0.5553,-0.5544,-0.5545,-0.5541,-0.5547,-0.5543,-0.5544,-0.5542,-0.5546,-0.5547,-0.5547,-0.5547,0,-0.5895,-0.5882,-0.5861,-0.5835,-0.5817,-0.5796,-0.5773,-0.5764,-0.5732,-0.5716,-0.5691,-0.5674,-0.564,-0.5615,-0.5586,-0.5568,-0.5552,-0.5549,-0.5546,-0.5553,-0.5562,-0.5555,-0.5551,-0.5549,-0.5549,-0.5549,-0.5548,-0.5548,-0.5906,-0.5894,-0.5866,-0.5843,-0.5823,-0.5802,-0.5788,-0.5765,-0.5744,-0.5714,-0.5699,-0.5674,-0.5646,-0.5606,-0.5588,-0.5567,-0.5562,-0.5559,-0.5558,-0.5558,-0.5559,-0.5565,-0.5562,-0.5562,-0.5562,-0.5562,-0.5562,0,-0.5914,-0.5894,-0.5873,-0.5842,-0.5823,-0.581,-0.5784,-0.5769,-0.5747,-0.5722,-0.5701,-0.5671,-0.5646,-0.5617,-0.559,-0.5578,-0.557,-0.5572,-0.5572,-0.5568,-0.5565,-0.557,-0.5579,-0.5579,-0.5579,-0.5579,-0.5579,-0.5579,-0.5916,-0.5895,-0.5879,-0.5848,-0.5828,-0.5803,-0.5789,-0.5769,-0.5749,-0.5717,-0.5696,-0.5677,-0.565,-0.562,-0.5596,-0.5588,-0.5578,-0.5582,-0.5572,-0.557,-0.5569,-0.5567,-0.5571,-0.558,-0.558,-0.5576,-0.5576,-0.5576]},{"header":{"parameterUnit":"m.s-1","parameterCategory":1,"la1":30.2991,"la2":30.254,"lo1":-89.0895,"lo2":-89.0444,"dy":0.0017,"dx":0.0017,"nx":28,"ny":28,"refTime":"2023-11-08T03:00:00:Z","depth":0,"parameterNumber":3,"parameterNumberName":"V-component_of_WINDS"},"data":[0,0,0,0,0,0,0,0,0,0,0,0,0,0,0,0,0,0,0,0,0,0,0,0,0,0,0,0,0,0,0,0,0,0,0,0,0,0,0,0,0,0,0,0,0,0,0,0,0,0,0,0,0,0,0,0,0,0,-0.3846,-0.3846,0,-0.3856,-0.3856,-0.3856,-0.3886,-0.3887,-0.3888,-0.3888,-0.3896,-0.3896,-0.3895,0,0,0,0,0,0,0,0,0,0,0,0,0,-0.3852,-0.3852,-0.3846,-0.3846,-0.3846,-0.3856,-0.3856,-0.3856,-0.3886,-0.3887,-0.3888,-0.3889,-0.3896,-0.3896,-0.3895,0,0,0,0,0,0,0,0,0,0,0,0,0,-0.3854,-0.3852,-0.3846,-0.3863,-0.3864,-0.3856,-0.3856,-0.3856,-0.3886,-0.3887,-0.3888,-0.3889,-0.3896,-0.3896,-0.3895,-0.3871,0,0,-0.3893,-0.3893,0,0,0,0,0,0,0,0,-0.3854,-0.3854,-0.386,-0.3861,-0.3863,-0.3871,-0.3861,-0.3861,-0.3886,-0.3878,-0.3888,-0.3889,-0.3887,-0.3887,-0.3887,-0.3871,-0.3872,-0.3893,-0.3893,-0.3892,-0.3892,0,0,0,0,0,0,0,-0.3854,-0.3854,-0.385,-0.386,-0.3862,-0.3869,-0.387,-0.3861,-0.3876,-0.3878,-0.3881,-0.3881,-0.3888,-0.3887,-0.3887,-0.3872,-0.3893,-0.3893,-0.3892,-0.3892,-0.3837,-0.3836,0,0,0,0,0,0,-0.3852,-0.3853,-0.385,-0.385,-0.3861,-0.3868,-0.387,-0.3867,-0.3877,-0.3879,-0.3881,-0.3883,-0.3888,-0.3888,-0.3887,-0.3859,-0.3892,-0.3892,-0.3892,-0.3838,-0.3837,-0.3835,0,0,0,0,0,0,-0.3852,-0.3851,-0.3849,-0.3852,-0.3853,-0.3867,-0.3864,-0.3867,-0.3866,-0.3878,-0.3881,-0.3877,-0.3888,-0.3888,-0.3875,-0.386,-0.3892,-0.3891,-0.3839,-0.3838,-0.3836,-0.3802,0,0,0,0,0,0,-0.3852,-0.3851,-0.3842,-0.3852,-0.3853,-0.3837,-0.3863,-0.3867,-0.3865,-0.3868,-0.3876,-0.3878,-0.3889,-0.3876,-0.3874,-0.3859,-0.3891,-0.3841,-0.3839,-0.3837,-0.3805,-0.38,-0.3795,0,0,0,0,0,-0.3852,-0.3832,-0.3842,-0.3841,-0.3842,-0.3836,-0.3836,-0.385,-0.3864,-0.3855,-0.3863,-0.3878,-0.3862,-0.3874,-0.3873,-0.3857,-0.3842,-0.3839,-0.3837,-0.3807,-0.3801,-0.3795,0,0,0,0,0,0,-0.3819,-0.3833,-0.3844,-0.3827,-0.383,-0.3841,-0.383,-0.3844,-0.3842,-0.3845,-0.3862,-0.3863,-0.3847,-0.3851,-0.3865,-0.3834,-0.3854,-0.3851,-0.3832,-0.3826,-0.3821,-0.382,-0.389,0,0,0,0,0,-0.381,-0.3805,-0.3817,-0.3801,-0.3802,-0.3816,-0.3814,-0.3825,-0.3828,-0.3829,-0.3836,-0.3838,-0.3834,-0.3831,-0.3827,-0.3806,-0.3807,-0.3795,-0.379,-0.3786,-0.3783,-0.3771,-0.3765,-0.3827,-0.3827,-0.3828,0,0,-0.3791,-0.3798,-0.3793,-0.3795,-0.3798,-0.3791,-0.3817,-0.3809,-0.3804,-0.3828,-0.3816,-0.3821,-0.3824,-0.3807,-0.3799,-0.381,-0.3766,-0.3783,-0.378,-0.3779,-0.3768,-0.3762,-0.3757,-0.3826,-0.3826,-0.3826,0,0,-0.3752,-0.3758,-0.3744,-0.3748,-0.3753,-0.3763,-0.3759,-0.3769,-0.3773,-0.3761,-0.3779,-0.3773,-0.3766,-0.3767,-0.3767,-0.373,-0.3743,-0.3728,-0.3703,-0.3691,-0.3686,-0.3682,-0.3667,-0.3662,-0.3725,-0.3725,-0.3725,0,-0.3727,-0.3718,-0.3736,-0.3726,-0.3726,-0.3749,-0.3735,-0.3737,-0.3741,-0.374,-0.3752,-0.3742,-0.3746,-0.3729,-0.372,-0.372,-0.3715,-0.3727,-0.3686,-0.3681,-0.3678,-0.3664,-0.3658,-0.3723,-0.3724,-0.3724,-0.3724,0,-0.3687,-0.3681,-0.3669,-0.3673,-0.3671,-0.366,-0.3674,-0.3671,-0.3682,-0.369,-0.3677,-0.3683,-0.3681,-0.3678,-0.3689,-0.3662,-0.3668,-0.3683,-0.3703,-0.3669,-0.3657,-0.3651,-0.3721,-0.3721,-0.3722,-0.3722,0,0,-0.3626,-0.364,-0.3635,-0.3637,-0.3645,-0.364,-0.363,-0.3629,-0.3624,-0.3627,-0.3617,-0.3611,-0.3624,-0.3624,-0.3635,-0.3625,-0.3593,-0.364,-0.3641,-0.363,-0.3563,-0.355,-0.3544,-0.3603,-0.3602,-0.3601,-0.3562,0,-0.3588,-0.3571,-0.3586,-0.3566,-0.356,-0.3582,-0.3573,-0.3576,-0.3584,-0.3579,-0.3587,-0.3582,-0.36,-0.36,-0.3592,-0.3599,-0.358,-0.3602,-0.3593,-0.3592,-0.3589,-0.3538,-0.3525,-0.3487,-0.3557,-0.3556,-0.3556,0,-0.3541,-0.3542,-0.3521,-0.353,-0.3528,-0.3519,-0.3519,-0.3515,-0.3519,-0.3526,-0.3526,-0.354,-0.3529,-0.355,-0.3535,-0.355,-0.3548,-0.3551,-0.355,-0.3548,-0.357,-0.3532,-0.3475,-0.3469,-0.3548,-0.3549,-0.3549,0,-0.3497,-0.3493,-0.3479,-0.348,-0.3491,-0.3484,-0.3489,-0.3494,-0.3492,-0.3492,-0.3491,-0.349,-0.3488,-0.3487,-0.35,-0.3514,-0.3482,-0.3505,-0.3486,-0.3485,-0.3476,-0.3476,-0.3416,-0.3478,-0.3478,-0.3478,-0.3478,0,-0.3452,-0.3437,-0.3459,-0.3451,-0.3436,-0.3454,-0.3438,-0.3444,-0.3449,-0.3442,-0.3462,-0.3454,-0.3473,-0.3467,-0.3477,-0.3462,-0.3462,-0.3466,-0.3468,-0.3463,-0.3462,-0.346,-0.3462,-0.3477,-0.3477,-0.3477,-0.3478,0,-0.3399,-0.3413,-0.34,-0.3412,-0.3414,-0.3402,-0.3412,-0.3404,-0.3414,-0.3404,-0.3403,-0.3417,-0.3412,-0.3425,-0.3421,-0.3428,-0.3406,-0.3414,-0.3405,-0.3406,-0.3386,-0.3387,-0.332,-0.3312,-0.3381,-0.338,-0.338,0,-0.3368,-0.3357,-0.3369,-0.3365,-0.3369,-0.3363,-0.3362,-0.338,-0.3377,-0.3381,-0.3373,-0.3369,-0.3367,-0.3356,-0.3366,-0.3363,-0.3369,-0.3346,-0.3369,-0.3363,-0.3367,-0.3366,-0.3365,-0.3341,-0.334,-0.3339,-0.3339,0,-0.3311,-0.3319,-0.3316,-0.3316,-0.3314,-0.3314,-0.3316,-0.3312,-0.3331,-0.3327,-0.3322,-0.332,-0.3317,-0.3312,-0.3311,-0.3315,-0.3329,-0.3332,-0.3327,-0.332,-0.3315,-0.3316,-0.339,-0.3333,-0.3334,-0.3334,-0.3334,-0.3335,-0.3267,-0.3259,-0.3265,-0.3261,-0.3265,-0.3266,-0.3259,-0.3268,-0.3264,-0.3263,-0.3274,-0.3266,-0.3271,-0.3271,-0.3274,-0.3267,-0.3277,-0.3271,-0.3269,-0.3266,-0.3262,-0.3318,-0.3267,-0.3268,-0.3268,-0.3268,-0.3268,0,-0.321,-0.3215,-0.3212,-0.3214,-0.3211,-0.3227,-0.323,-0.3225,-0.3219,-0.3222,-0.322,-0.3213,-0.3209,-0.3219,-0.3216,-0.3209,-0.3215,-0.3207,-0.3207,-0.3207,-0.3254,-0.3257,-0.3202,-0.3202,-0.3202,-0.3202,-0.3202,-0.3202,-0.3179,-0.3165,-0.3174,-0.3162,-0.3168,-0.3161,-0.3161,-0.3162,-0.3165,-0.3157,-0.3154,-0.3161,-0.3166,-0.3164,-0.316,-0.3163,-0.316,-0.315,-0.3154,-0.3197,-0.3204,-0.321,-0.3213,-0.3149,-0.3149,-0.3108,-0.3108,-0.3107]}]]